Location: Forst
(46.9333°N, 15.4333°E)
Time: 02:48:54
(UTC+00:00)

Envisat - Pass Details

Date: 29 September 2021
Orbit: 764 x 766 km, 98.2° (Epoch: 26 October)

Event Time Altitude Azimuth Distance (km) Brightness Sun altitude
Rises 03:07:59 0° 25° (NNE) 3,242 6.9 -18.8°
Reaches altitude 10° 03:10:47 10° 40° (NE) 2,310 6.3 -18.3°
Maximum altitude 03:14:46 23° 92° (E) 1,597 5.5 -17.6°
Drops below altitude 10° 03:18:43 10° 144° (SE) 2,296 5.7 -17.0°
Sets 03:21:29 0° 158° (SSE) 3,216 6.3 -16.5°
